Back to catalog

ONEWEB-0461

AliveCommunicationsPO
NORAD 51649·PAYLOAD·🇬🇧 United Kingdom

Launched Feb 10, 2022 from Guiana Space Centre

Loading…

Next Passes (next 24 hours)

TLE

FreshSource: CelesTrak SupGP

Epoch: Sep 14, 2026, 18:45 UTC

1 51649C 22012AD  26257.78140463 -.00001002  00000+0 -25833-2 0  2571
2 51649  87.9207 348.0696 0001782 105.2782   6.5852 13.17654319    16

Track ONEWEB-0461 in real time with AllMySat

Download on the App Store